Del Bajio, Mexico

3:50 AM CST on January 16, 2018 (GMT -0600)
De Guanajuato International

Weather History for MMLO - May, 2013

Change the Weather History Date:

Wednesday, May 1, 2013

  Actual Average Record
Temperature  
Mean Temperature 70 °F -  
Max Temperature 89 °F 88 °F 96 °F (2012)
Min Temperature 51 °F 54 °F 48 °F (1998)
Cooling Degree Days 5    
Growing Degree Days 20 (Base 50)    
Moisture  
Dew Point 18 °F    
Average Humidity 16    
Maximum Humidity 72    
Minimum Humidity 6    
Precipitation  
Precipitation 0.00 in - - ()
Sea Level Pressure  
Sea Level Pressure 30.00 in    
Wind  
Wind Speed 3 mph ()    
Max Wind Speed 12 mph    
Max Gust Speed -    
Visibility 8.5 miles    
Events      
Averages and records for this station are not official NWS values.
T = Trace of Precipitation, MM = Missing Value Source: Averaged Metar Reports

Daily Weather History Graph

Daily Weather History Graph

Search for Another Location

Airport or City:

Trip Planner

Search our weather history database for the weather conditions in past years. The results will help you decide how hot, cold, wet, or windy it might be!

Date:

Astronomy

May. 01, 2013 Rise Set
Actual Time 7:15 AM CDT 8:10 PM CDT
Civil Twilight 6:52 AM CDT 8:34 PM CDT
Nautical Twilight 6:24 AM CDT 9:01 PM CDT
Astronomical Twilight 5:56 AM CDT 9:29 PM CDT
Moon 1:19 AM CDT (5/1) 12:55 PM CDT (5/1)
Length of Visible Light 13h 42m
Length of Day
12h 55m
Waning Gibbous, 59% of the Moon is Illuminated
May 1
Waning Gibbous
May 2
Last Quarter
May 9
New
May 17
First Quarter
May 24
Full

Hourly Weather History & Observations

Time (CDT) Temp. Dew Point Humidity Pressure Visibility Wind Dir Wind Speed Gust Speed Precip Events Conditions
12:43 AM 57.2 °F 1.4 °F 10% 29.76 in 8.0 mi Calm Calm - N/A   Scattered Clouds
2:47 AM 57.2 °F 1.4 °F 10% 30.12 in 8.0 mi Calm Calm - N/A   Scattered Clouds
3:41 AM 57.2 °F 5.0 °F 12% 29.67 in 8.0 mi Calm Calm - N/A   Scattered Clouds
4:44 AM 55.4 °F 10.4 °F 17% 30.09 in 8.0 mi NNE 4.6 mph - N/A   Scattered Clouds
5:44 AM 55.4 °F 46.4 °F 72% 30.12 in 8.0 mi NNE 5.8 mph - N/A   Scattered Clouds
6:42 AM 51.8 °F 15.8 °F 24% 29.77 in 8.0 mi Calm Calm - N/A   Scattered Clouds
7:53 AM 55.4 °F 17.6 °F 23% 30.18 in 8.0 mi Calm Calm - N/A   Scattered Clouds
8:45 AM 62.6 °F 21.2 °F 20% 30.21 in 8.0 mi Calm Calm - N/A   Mostly Cloudy
9:55 AM 71.6 °F 33.8 °F 25% 29.80 in 8.0 mi NW 8.1 mph - N/A   Mostly Cloudy
10:48 AM 75.2 °F 33.8 °F 22% 30.21 in 8.0 mi NW 6.9 mph - N/A   Mostly Cloudy
11:47 AM 78.8 °F 32.0 °F 18% 30.21 in 9.0 mi NW 8.1 mph - N/A   Mostly Cloudy
1:46 PM 84.2 °F 28.4 °F 13% 30.18 in 9.0 mi SSW 11.5 mph - N/A   Scattered Clouds
2:44 PM 87.8 °F 26.6 °F 11% 30.12 in 9.0 mi West 6.9 mph - N/A   Scattered Clouds
3:47 PM 89.6 °F 23.0 °F 9% 29.64 in 9.0 mi SW 5.8 mph - N/A   Scattered Clouds
4:45 PM 89.6 °F 21.2 °F 8% 30.09 in 10.0 mi WNW 11.5 mph - N/A   Scattered Clouds
5:41 PM 89.6 °F 17.6 °F 7% 30.06 in 10.0 mi WNW 11.5 mph - N/A   Scattered Clouds
6:46 PM 89.6 °F 12.2 °F 6% 29.63 in 10.0 mi West 9.2 mph - N/A   Scattered Clouds
7:44 PM 84.2 °F 8.6 °F 6% 30.06 in 10.0 mi Calm Calm - N/A   Partly Cloudy
8:44 PM 77.0 °F 10.4 °F 8% 30.09 in 8.0 mi WSW 4.6 mph - N/A   Partly Cloudy
9:50 PM 69.8 °F 8.6 °F 9% 29.72 in 8.0 mi North 5.8 mph - N/A   Clear
10:50 PM 66.2 °F 8.6 °F 11% 30.11 in 8.0 mi North 5.8 mph - N/A   Clear
11:47 PM 64.4 °F 10.4 °F 12% 30.13 in 8.0 mi NNE 5.8 mph - N/A   Clear